Location: Azul
(36.7830°S, 59.8500°W)
Time: 11:04:30
(UTC-03:00)

ISS - Pass Details

Date: 19 August 2019
Orbit: 410 x 420 km, 51.6° (Epoch: 21 August)

Event Time Altitude Azimuth Distance (km) Brightness Sun altitude
Rises 19:15:50 0° 351° (N) 2,351 0.3 -10.1°
Reaches altitude 10° 19:18:33 10° 14° (NNE) 1,495 -1.0 -10.6°
Maximum altitude 19:20:35 15° 52° (NE) 1,222 -1.8 -11.0°
Enters shadow 19:21:23 14° 69° (ENE) 1,271 -1.8 -11.2°
